Flag for United Kingdom Weather past 2 weeks in St. Peter Port, Guernsey, United Kingdom

Now
55 °F

Passing clouds.


Feels Like: 53 °F
Forecast: 60 / 66 °F
Wind: 9 mph from Southwest

Location: Cherbourg / Maupertus

Current Time: Aug 29, 2014 at 3:17:25 AM

Latest Report: Aug 29, 2014 at 2:30 AM


Visibility: N/A

Pressure: 29.98 "Hg

Humidity: 94%

Dew point: 54 °F

Location of St. Peter PortLocation

Historic Weather in St. Peter Port — Graph

°F

St. Peter Port temperature yesterday

Maximum temperature yesterday: 70 °F (at 1:30 PM)
Minimum temperature yesterday: 55 °F (at 10:00 PM)
Average temperature yesterday: 62 °F

Past Weeks' High & Low Weather Summary

 TemperatureHumidityPressure
High70 °F (Aug 28, 1:30 PM)100% (Aug 25, 7:00 AM)30.24 "Hg (Aug 25, 7:00 AM)
Low46 °F (Aug 21, 5:00 AM)49% (Aug 21, 10:30 AM)29.59 "Hg (Aug 26, 5:00 AM)
Average59 °F78%29.96 "Hg
* Reported Aug 14 2:00 AM — Aug 29 2:00 AM, St. Peter Port, Weather by CustomWeather, © 2014

Note: Actual official high and low records may vary slightly from our data, if they occured in-between our weather recording intervals... More about our weather records

Advertising

St. Peter Port weather history for previous 24 hours

 ConditionsComfort  
Time TempWeatherWind HumidityBarometerVisibility
2:00 AM
Aug 29
55 °FPartly cloudy.7 mph94%29.98 "HgN/A
1:30 AM55 °FPassing clouds.8 mph88%29.98 "HgN/A
1:00 AM55 °FClear.9 mph88%29.98 "HgN/A
12:30 AM55 °FClear.10 mph88%29.98 "HgN/A
12:00 AM55 °FPassing clouds.10 mph88%29.98 "HgN/A
11:30 PM
Aug 28
55 °FClear.9 mph94%29.98 "HgN/A
11:00 PM55 °FClear.9 mph94%29.98 "HgN/A
10:30 PM55 °FClear.8 mph94%29.98 "HgN/A
10:00 PM55 °FClear.8 mph94%29.98 "HgN/A
9:30 PM57 °FClear.9 mph88%29.98 "HgN/A
9:00 PM57 °FClear.8 mph88%29.98 "HgN/A
8:30 PM57 °FClear.9 mph88%29.98 "HgN/A
8:00 PM59 °FClear.9 mph82%29.95 "HgN/A
7:30 PM61 °FClear.10 mph83%29.95 "HgN/A
7:00 PM61 °FClear.12 mph77%29.95 "HgN/A
6:30 PM63 °FPassing clouds.13 mph77%29.95 "HgN/A
6:00 PM63 °FPartly sunny.15 mph77%29.95 "HgN/A
5:30 PM63 °FBroken clouds.14 mph88%29.95 "HgN/A
5:00 PM64 °FBroken clouds.13 mph88%29.95 "HgN/A
4:30 PM63 °FLight rain. Broken clouds.14 mph94%29.95 "Hg4 mi
4:00 PM66 °FPartly sunny.14 mph73%29.95 "HgN/A
3:30 PM70 °FMore clouds than sun.16 mph64%29.95 "HgN/A
3:00 PM70 °FPartly sunny.17 mph64%29.95 "HgN/A
2:30 PM70 °FMostly cloudy.16 mph64%29.95 "HgN/A
2:00 PM68 °FOvercast.16 mph69%29.95 "HgN/A
1:30 PM70 °FPartly sunny.16 mph64%29.95 "HgN/A
1:00 PM66 °FOvercast.16 mph73%29.95 "HgN/A
12:30 PM66 °FMostly cloudy.15 mph73%29.92 "HgN/A
12:00 PM66 °FMostly cloudy.15 mph73%29.92 "HgN/A
11:30 AM66 °FBroken clouds.14 mph73%29.92 "HgN/A
11:00 AM66 °FPartly sunny.17 mph78%29.92 "HgN/A
10:30 AM66 °FPartly sunny.16 mph78%29.92 "HgN/A
10:00 AM63 °FPartly sunny.15 mph83%29.92 "HgN/A
9:30 AM63 °FPartly sunny.14 mph83%29.92 "HgN/A
9:00 AM63 °FBroken clouds.13 mph83%29.92 "HgN/A
8:30 AM61 °FOvercast.10 mph88%29.89 "HgN/A
8:00 AM61 °FOvercast.10 mph94%29.89 "HgN/A
7:30 AM61 °FLow clouds.10 mph88%29.89 "HgN/A
7:00 AM61 °FMostly cloudy.10 mph94%29.89 "HgN/A
6:30 AM61 °FLow clouds.10 mph88%29.89 "HgN/A
6:00 AM59 °FLow clouds.9 mph94%29.86 "HgN/A
5:30 AM59 °FPartly cloudy.8 mph100%29.86 "HgN/A
5:00 AM59 °FPassing clouds.10 mph94%29.86 "HgN/A
4:30 AM61 °FLow clouds.10 mph94%29.86 "HgN/A
4:00 AM59 °FPartly cloudy.9 mph100%29.86 "HgN/A
3:30 AM61 °FFog.9 mph100%29.86 "Hg2 mi
3:00 AM61 °FLow clouds.12 mph100%29.86 "Hg6 mi
Weather by CustomWeather, © 2014

See weather overviewHow to use our weather pages